Weather History for Fairfield, IL

Change the Weather History Date:

Tuesday, September 24, 2013

  Actual Average (KMVN) Record (KMVN)
Temperature  
Mean Temperature 68 °F -  
Max Temperature 82 °F 75 °F 91 °F (2007)
Min Temperature 53 °F 49 °F 33 °F (2012)
Cooling Degree Days 2    
Growing Degree Days 18 (Base 50)    
Moisture  
Dew Point 55 °F    
Average Humidity 65    
Maximum Humidity 83    
Minimum Humidity 37    
Precipitation  
Precipitation 0.00 in - - ()
Sea Level Pressure  
Sea Level Pressure 29.91 in    
Wind  
Wind Speed 2 mph (ESE)    
Max Wind Speed 9 mph    
Max Gust Speed -    
Visibility 10 miles    
Events      
Averages and records for this station are not official NWS values.
T = Trace of Precipitation, MM = Missing Value Source: NWS Daily Summary

Daily Weather History Graph

Daily Weather History Graph

Search for Another Location

Airport:

Trip Planner

Search our weather history database for the weather conditions in past years. The results will help you decide how hot, cold, wet, or windy it might be!

Date:

Astronomy

Sep. 24, 2013 Rise Set
Actual Time 6:43 AM CDT 6:47 PM CDT
Civil Twilight 6:16 AM CDT 7:13 PM CDT
Nautical Twilight 5:46 AM CDT 7:44 PM CDT
Astronomical Twilight 5:14 AM CDT 8:15 PM CDT
Moon 10:08 PM CDT (9/24) 11:53 AM CDT (9/24)
Length of Visible Light 12h 56m
Length of Day
12h 03m
Waning Gibbous, 73% of the Moon is Illuminated
Sep 24
Waning Gibbous
Sep 26
Last Quarter
Oct 4
New
Oct 11
First Quarter
Oct 18
Full

Hourly Weather History & Observations

Time (CDT) Temp. Heat Index Dew Point Humidity Pressure Visibility Wind Dir Wind Speed Gust Speed Precip Events Conditions
12:15 AM 59.0 °F - 50.0 °F 72% 29.98 in 10.0 mi Calm Calm - N/A   Clear
12:35 AM 57.2 °F - 50.0 °F 77% 29.98 in 10.0 mi Calm Calm - N/A   Clear
12:55 AM 57.2 °F - 48.2 °F 72% 29.98 in 10.0 mi Calm Calm - N/A   Clear
1:15 AM 57.2 °F - 48.2 °F 72% 29.98 in 10.0 mi Calm Calm - N/A   Clear
1:35 AM 55.4 °F - 48.2 °F 77% 29.98 in 10.0 mi Calm Calm - N/A   Clear
1:55 AM 55.4 °F - 48.2 °F 77% 29.98 in 10.0 mi Calm Calm - N/A   Clear
2:35 AM 55.4 °F - 48.2 °F 77% 29.98 in 10.0 mi Calm Calm - N/A   Clear
2:55 AM 55.4 °F - 48.2 °F 77% 29.98 in 10.0 mi Calm Calm - N/A   Clear
3:15 AM 55.4 °F - 48.2 °F 77% 29.98 in 10.0 mi Calm Calm - N/A   Clear
3:35 AM 55.4 °F - 48.2 °F 77% 29.97 in 10.0 mi Calm Calm - N/A   Clear
3:55 AM 55.4 °F - 48.2 °F 77% 29.98 in 10.0 mi Calm Calm - N/A   Clear
4:35 AM 53.6 °F - 48.2 °F 82% 29.98 in 10.0 mi Calm Calm - N/A   Scattered Clouds
4:55 AM 53.6 °F - 48.2 °F 82% 29.98 in 10.0 mi Calm Calm - N/A   Clear
5:15 AM 53.6 °F - 48.2 °F 82% 29.98 in 10.0 mi Calm Calm - N/A   Scattered Clouds
5:35 AM 55.4 °F - 48.2 °F 77% 29.99 in 10.0 mi Calm Calm - N/A   Mostly Cloudy
5:55 AM 55.4 °F - 48.2 °F 77% 29.99 in 10.0 mi Calm Calm - N/A   Mostly Cloudy
6:15 AM 57.2 °F - 48.2 °F 72% 29.99 in 10.0 mi East 4.6 mph - N/A   Mostly Cloudy
6:35 AM 57.2 °F - 50.0 °F 77% 29.99 in 10.0 mi Calm Calm - N/A   Mostly Cloudy
6:55 AM 57.2 °F - 50.0 °F 77% 29.99 in 10.0 mi East 3.5 mph - N/A   Mostly Cloudy
7:15 AM 57.2 °F - 50.0 °F 77% 29.99 in 10.0 mi Calm Calm - N/A   Overcast
7:35 AM 57.2 °F - 51.8 °F 82% 29.98 in 10.0 mi East 3.5 mph - N/A   Mostly Cloudy
7:55 AM 57.2 °F - 51.8 °F 82% 29.98 in 10.0 mi East 4.6 mph - N/A   Mostly Cloudy
8:15 AM 59.0 °F - 51.8 °F 77% 29.97 in 10.0 mi East 4.6 mph - N/A   Overcast
8:35 AM 59.0 °F - 51.8 °F 77% 29.97 in 10.0 mi East 3.5 mph - N/A   Scattered Clouds
8:55 AM 62.6 °F - 53.6 °F 72% 29.97 in 10.0 mi East 5.8 mph - N/A   Clear
9:15 AM 62.6 °F - 55.4 °F 77% 29.96 in 10.0 mi ESE 5.8 mph - N/A   Clear
9:35 AM 64.4 °F - 55.4 °F 73% 29.95 in 10.0 mi ESE 5.8 mph - N/A   Clear
9:55 AM 66.2 °F - 55.4 °F 68% 29.95 in 10.0 mi ESE 4.6 mph - N/A   Clear
10:15 AM 69.8 °F - 57.2 °F 64% 29.95 in 10.0 mi East 6.9 mph - N/A   Clear
10:35 AM 71.6 °F - 57.2 °F 60% 29.95 in 10.0 mi East 4.6 mph - N/A   Clear
10:55 AM 71.6 °F - 57.2 °F 60% 29.95 in 10.0 mi ENE 3.5 mph - N/A   Clear
11:15 AM 73.4 °F - 57.2 °F 57% 29.94 in 10.0 mi East 4.6 mph - N/A   Clear
11:35 AM 75.2 °F - 57.2 °F 53% 29.94 in 10.0 mi ENE 4.6 mph - N/A   Clear
11:55 AM 77.0 °F - 57.2 °F 50% 29.93 in 10.0 mi ESE 5.8 mph - N/A   Clear
12:15 PM 78.8 °F - 57.2 °F 47% 29.92 in 10.0 mi East 6.9 mph - N/A   Clear
12:55 PM 78.8 °F - 51.8 °F 39% 29.90 in 10.0 mi ESE 6.9 mph - N/A   Scattered Clouds
1:15 PM 78.8 °F - 53.6 °F 42% 29.90 in 10.0 mi ESE 8.1 mph - N/A   Scattered Clouds
1:35 PM 78.8 °F - 53.6 °F 42% 29.90 in 10.0 mi East 5.8 mph - N/A   Scattered Clouds
1:55 PM 78.8 °F - 53.6 °F 42% 29.89 in 10.0 mi ENE 6.9 mph - N/A   Scattered Clouds
2:15 PM 78.8 °F - 55.4 °F 44% 29.89 in 10.0 mi East 4.6 mph - N/A   Mostly Cloudy
2:35 PM 80.6 °F 80.5 °F 55.4 °F 42% 29.88 in 10.0 mi East 5.8 mph - N/A   Mostly Cloudy
2:55 PM 80.6 °F 80.3 °F 53.6 °F 39% 29.87 in 10.0 mi ESE 9.2 mph - N/A   Scattered Clouds
3:15 PM 82.4 °F 81.4 °F 53.6 °F 37% 29.86 in 10.0 mi SE 5.8 mph - N/A   Scattered Clouds
3:35 PM 80.6 °F 80.3 °F 53.6 °F 39% 29.85 in 10.0 mi ESE 8.1 mph - N/A   Clear
3:55 PM 80.6 °F 80.3 °F 53.6 °F 39% 29.85 in 10.0 mi ESE 6.9 mph - N/A   Clear
4:15 PM 80.6 °F 80.3 °F 53.6 °F 39% 29.85 in 10.0 mi ESE 8.1 mph - N/A   Scattered Clouds
4:35 PM 78.8 °F - 55.4 °F 44% 29.85 in 10.0 mi East 3.5 mph - N/A   Mostly Cloudy
4:55 PM 80.6 °F 80.5 °F 55.4 °F 42% 29.85 in 10.0 mi East 6.9 mph - N/A   Scattered Clouds
5:15 PM 80.6 °F 80.5 °F 55.4 °F 42% 29.84 in 10.0 mi East 6.9 mph - N/A   Scattered Clouds
5:35 PM 78.8 °F - 55.4 °F 44% 29.84 in 10.0 mi East 5.8 mph - N/A   Mostly Cloudy
5:55 PM 78.8 °F - 57.2 °F 47% 29.84 in 10.0 mi East 4.6 mph - N/A   Overcast
6:15 PM 75.2 °F - 57.2 °F 53% 29.84 in 10.0 mi ESE 3.5 mph - N/A   Overcast
6:35 PM 75.2 °F - 59.0 °F 57% 29.84 in 10.0 mi ESE 4.6 mph - N/A   Overcast
6:55 PM 75.2 °F - 59.0 °F 57% 29.84 in 10.0 mi ESE 3.5 mph - N/A   Overcast
7:15 PM 75.2 °F - 59.0 °F 57% 29.84 in 10.0 mi ESE 3.5 mph - N/A   Overcast
7:35 PM 73.4 °F - 59.0 °F 61% 29.85 in 10.0 mi SSE 3.5 mph - N/A   Overcast
7:55 PM 73.4 °F - 60.8 °F 65% 29.85 in 10.0 mi Calm Calm - N/A   Overcast
8:15 PM 73.4 °F - 60.8 °F 65% 29.85 in 10.0 mi Calm Calm - N/A   Overcast
8:35 PM 71.6 °F - 60.8 °F 69% 29.85 in 10.0 mi Calm Calm - N/A   Overcast
8:55 PM 71.6 °F - 62.6 °F 73% 29.85 in 10.0 mi West 3.5 mph - N/A   Overcast
9:15 PM 69.8 °F - 62.6 °F 78% 29.85 in 10.0 mi Calm Calm - N/A   Overcast
9:35 PM 69.8 °F - 62.6 °F 78% 29.85 in 10.0 mi Calm Calm - N/A   Overcast
9:55 PM 69.8 °F - 62.6 °F 78% 29.85 in 10.0 mi Calm Calm - N/A   Overcast
10:15 PM 71.6 °F - 62.6 °F 73% 29.85 in 10.0 mi Calm Calm - N/A   Overcast
10:35 PM 71.6 °F - 62.6 °F 73% 29.84 in 10.0 mi Calm Calm - N/A   Overcast
10:55 PM 71.6 °F - 62.6 °F 73% 29.84 in 10.0 mi Calm Calm - N/A   Overcast
11:15 PM 68.0 °F - 62.6 °F 83% 29.85 in 10.0 mi Calm Calm - N/A   Mostly Cloudy
11:35 PM 68.0 °F - 62.6 °F 83% 29.84 in 10.0 mi Calm Calm - N/A   Scattered Clouds
11:55 PM 68.0 °F - 60.8 °F 78% 29.85 in 10.0 mi Calm Calm - N/A   Mostly Cloudy